Lincoln, IL

3:35 PM CDT on October 19, 2019 (GMT -0500)
Lincoln

Weather History for KAAA - August, 2019

Change the Weather History Date:

Tuesday, August 13, 2019

  Actual Average (KSPI) Record (KSPI)
Temperature  
Mean Temperature 80 °F -  
Max Temperature 86 °F 83 °F 103 °F (1936)
Min Temperature 73 °F 63 °F 43 °F (1964)
Cooling Degree Days 14    
Growing Degree Days 30 (Base 50)    
Moisture  
Dew Point 73 °F    
Average Humidity 85    
Maximum Humidity 100    
Minimum Humidity 62    
Precipitation  
Precipitation 0.00 in - - ()
Sea Level Pressure  
Sea Level Pressure 29.86 in    
Wind  
Wind Speed 3 mph (NW)    
Max Wind Speed 8 mph    
Max Gust Speed -    
Visibility 8 miles    
Events Fog    
Averages and records for this station are not official NWS values.
T = Trace of Precipitation, MM = Missing Value Source: NWS Daily Summary

Daily Weather History Graph

Daily Weather History Graph

Search for Another Location

Airport or City:

Astronomy

Aug. 13, 2019 Rise Set
Actual Time 6:06 AM CDT 7:57 PM CDT
Civil Twilight 5:37 AM CDT 8:26 PM CDT
Nautical Twilight 5:01 AM CDT 9:01 PM CDT
Astronomical Twilight 4:23 AM CDT 9:40 PM CDT
Moon 7:12 PM CDT (8/13) 4:08 AM CDT (8/13)
Length of Visible Light 14h 49m
Length of Day
13h 50m
Waxing Gibbous, 97% of the Moon is Illuminated
Aug 13
Waxing Gibbous
Aug 15
Full
Aug 23
Last Quarter
Aug 30
New
Sep 5
First Quarter

Hourly Weather History & Observations

Time (CDT) Temp. Heat Index Dew Point Humidity Pressure Visibility Wind Dir Wind Speed Gust Speed Precip Events Conditions
12:15 AM 73.9 °F - 72.5 °F 95% 29.79 in 10.0 mi South 4.6 mph - N/A   Clear
12:35 AM 73.8 °F - 72.1 °F 95% 29.79 in 10.0 mi South 4.6 mph - N/A   Clear
12:55 AM 73.6 °F - 72.1 °F 95% 29.78 in 10.0 mi Calm Calm - N/A   Clear
1:15 AM 73.4 °F - 72.1 °F 96% 29.78 in 10.0 mi Calm Calm - N/A   Clear
1:55 AM 73.8 °F - 72.9 °F 97% 29.77 in 10.0 mi Calm Calm - N/A   Scattered Clouds
2:15 AM 73.9 °F - 73.0 °F 97% 29.77 in 10.0 mi Calm Calm - N/A   Clear
2:35 AM 73.6 °F - 73.0 °F 98% 29.77 in 10.0 mi Calm Calm - N/A   Mostly Cloudy
2:55 AM 73.8 °F - 73.4 °F 99% 29.77 in 10.0 mi Calm Calm - N/A   Overcast
3:15 AM 73.6 °F - 73.2 °F 99% 29.78 in 10.0 mi Calm Calm - N/A   Overcast
3:35 AM 74.3 °F - 74.1 °F 99% 29.78 in 10.0 mi Calm Calm - N/A   Overcast
3:55 AM 74.8 °F - 74.7 °F 99% 29.78 in 2.0 mi Calm Calm - N/A   Overcast
4:15 AM 74.7 °F - 74.7 °F 100% 29.79 in 0.5 mi Calm Calm - N/A Fog Fog
4:35 AM 74.3 °F - 74.3 °F 100% 29.78 in 0.2 mi Calm Calm - N/A Fog Fog
4:55 AM 74.3 °F - 74.3 °F 100% 29.79 in 0.5 mi Calm Calm - N/A Fog Fog
5:15 AM 74.3 °F - 74.3 °F 100% 29.80 in 0.5 mi Calm Calm - N/A Fog Fog
5:35 AM 73.8 °F - 73.8 °F 100% 29.81 in 0.5 mi Calm Calm - N/A Fog Fog
5:55 AM 74.1 °F - 74.1 °F 100% 29.81 in 0.5 mi Calm Calm - N/A Fog Fog
6:15 AM 74.3 °F - 74.3 °F 100% 29.81 in 0.5 mi Calm Calm - N/A Fog Fog
6:35 AM 74.5 °F - 74.5 °F 100% 29.81 in 1.8 mi Calm Calm - N/A   Overcast
6:55 AM 74.7 °F - 74.7 °F 100% 29.82 in 2.0 mi WNW 4.6 mph - N/A   Overcast
7:15 AM 74.5 °F - 74.5 °F 100% 29.83 in 2.5 mi Calm Calm - N/A   Overcast
7:35 AM 74.7 °F - 74.7 °F 100% 29.84 in 3.0 mi West 4.6 mph - N/A   Mostly Cloudy
7:55 AM 74.7 °F - 74.3 °F 99% 29.84 in 4.0 mi Calm Calm - N/A   Mostly Cloudy
8:15 AM 74.5 °F - 73.9 °F 98% 29.85 in 4.0 mi NW 5.8 mph - N/A   Overcast
8:35 AM 74.3 °F - 73.4 °F 97% 29.86 in 5.0 mi NW 5.8 mph - N/A   Overcast
8:55 AM 73.8 °F - 72.9 °F 97% 29.87 in 3.0 mi NNW 4.6 mph - N/A   Overcast
9:15 AM 74.3 °F - 73.2 °F 96% 29.87 in 2.5 mi NNW 4.6 mph - N/A   Overcast
9:35 AM 74.5 °F - 72.7 °F 94% 29.88 in 4.0 mi North 6.9 mph - N/A   Overcast
9:55 AM 75.6 °F - 73.0 °F 92% 29.88 in 5.0 mi North 5.8 mph - N/A   Overcast
10:15 AM 76.5 °F - 73.2 °F 90% 29.88 in 7.0 mi North 5.8 mph - N/A   Overcast
10:35 AM 76.5 °F - 73.0 °F 89% 29.89 in 7.0 mi NNW 5.8 mph - N/A   Overcast
10:55 AM 79.5 °F - 73.9 °F 83% 29.88 in 7.0 mi NNW 4.6 mph - N/A   Overcast
11:15 AM 79.2 °F - 73.0 °F 81% 29.88 in 10.0 mi North 6.9 mph - N/A   Overcast
11:35 AM 79.3 °F - 73.0 °F 81% 29.89 in 10.0 mi NW 5.8 mph - N/A   Overcast
11:55 AM 81.9 °F 87.5 °F 73.8 °F 76% 29.88 in 10.0 mi NNW 5.8 mph - N/A   Overcast
12:15 PM 82.4 °F 88.4 °F 73.6 °F 75% 29.88 in 10.0 mi NNW 5.8 mph - N/A   Mostly Cloudy
12:35 PM 82.9 °F 88.3 °F 72.1 °F 70% 29.88 in 10.0 mi NW 4.6 mph - N/A   Mostly Cloudy
12:55 PM 82.0 °F 87.2 °F 72.7 °F 73% 29.88 in 10.0 mi NNW 4.6 mph - N/A   Mostly Cloudy
1:15 PM 82.4 °F 87.4 °F 72.1 °F 71% 29.88 in 10.0 mi NNW 4.6 mph - N/A   Overcast
1:35 PM 84.4 °F 91.0 °F 73.4 °F 69% 29.88 in 10.0 mi NW 4.6 mph - N/A   Overcast
1:55 PM 85.1 °F 91.8 °F 72.9 °F 67% 29.88 in 10.0 mi NNW 8.1 mph - N/A   Overcast
2:15 PM 83.1 °F 88.9 °F 73.0 °F 71% 29.89 in 10.0 mi WNW 3.5 mph - N/A   Overcast
2:35 PM 83.7 °F 89.4 °F 72.7 °F 69% 29.89 in 10.0 mi NW 6.9 mph - N/A   Overcast
2:55 PM 83.1 °F 88.9 °F 72.7 °F 71% 29.89 in 10.0 mi NW 8.1 mph - N/A   Overcast
3:15 PM 84.4 °F 90.6 °F 72.7 °F 68% 29.89 in 10.0 mi NNW 6.9 mph - N/A   Overcast
3:35 PM 83.7 °F 89.2 °F 72.0 °F 68% 29.89 in 10.0 mi North 5.8 mph - N/A   Overcast
3:55 PM 83.8 °F 89.5 °F 72.3 °F 68% 29.89 in 10.0 mi NNW 5.8 mph - N/A   Mostly Cloudy
4:15 PM 85.3 °F 92.2 °F 73.4 °F 67% 29.89 in 10.0 mi NNW 6.9 mph - N/A   Mostly Cloudy
4:35 PM 86.0 °F 91.8 °F 71.6 °F 62% 29.89 in 10.0 mi NW 5.8 mph - N/A   Overcast
4:55 PM 85.1 °F 90.4 °F 71.4 °F 63% 29.89 in 10.0 mi NW 6.9 mph - N/A   Mostly Cloudy
5:15 PM 84.6 °F 90.0 °F 71.6 °F 65% 29.89 in 10.0 mi NW 5.8 mph - N/A   Scattered Clouds
5:35 PM 84.2 °F 89.0 °F 70.9 °F 64% 29.89 in 10.0 mi NW 6.9 mph - N/A   Scattered Clouds
5:55 PM 83.8 °F 88.9 °F 71.2 °F 66% 29.89 in 10.0 mi NW 6.9 mph - N/A   Scattered Clouds
6:15 PM 81.9 °F 86.8 °F 72.5 °F 73% 29.89 in 10.0 mi NW 3.5 mph - N/A   Scattered Clouds
6:35 PM 82.9 °F 88.8 °F 73.2 °F 72% 29.88 in 10.0 mi NNW 5.8 mph - N/A   Scattered Clouds
6:55 PM 82.6 °F 88.3 °F 73.0 °F 73% 29.89 in 10.0 mi NW 4.6 mph - N/A   Scattered Clouds
7:15 PM 81.3 °F 85.9 °F 72.5 °F 74% 29.89 in 10.0 mi Calm Calm - N/A   Clear
7:35 PM 80.1 °F 83.8 °F 72.0 °F 76% 29.89 in 10.0 mi Calm Calm - N/A   Clear
7:55 PM 79.3 °F - 72.1 °F 79% 29.90 in 10.0 mi Calm Calm - N/A   Clear
8:15 PM 78.4 °F - 71.6 °F 79% 29.90 in 10.0 mi Calm Calm - N/A   Clear
8:35 PM 77.5 °F - 71.6 °F 82% 29.91 in 10.0 mi Calm Calm - N/A   Clear
8:55 PM 77.0 °F - 71.6 °F 83% 29.92 in 10.0 mi Calm Calm - N/A   Clear
9:15 PM 75.6 °F - 71.6 °F 87% 29.92 in 10.0 mi Calm Calm - N/A   Clear
9:35 PM 74.7 °F - 71.6 °F 90% 29.92 in 10.0 mi Calm Calm - N/A   Clear
9:55 PM 74.7 °F - 70.9 °F 88% 29.93 in 10.0 mi Calm Calm - N/A   Clear
10:15 PM 74.5 °F - 70.7 °F 88% 29.93 in 10.0 mi Calm Calm - N/A   Clear
10:35 PM 74.1 °F - 70.5 °F 88% 29.94 in 10.0 mi Calm Calm - N/A   Clear
10:55 PM 73.8 °F - 70.7 °F 90% 29.94 in 10.0 mi Calm Calm - N/A   Clear
11:15 PM 73.4 °F - 70.3 °F 90% 29.94 in 10.0 mi Calm Calm - N/A   Clear
11:35 PM 73.6 °F - 70.0 °F 88% 29.94 in 10.0 mi Calm Calm - N/A   Clear
11:55 PM 73.6 °F - 69.8 °F 88% 29.95 in 10.0 mi Calm Calm - N/A   Clear